カタログに戻る

DELTA 4H R/B

運用中MEO
NORAD 33491·ROCKET BODY·🇺🇸 United States

打ち上げ Jan 18, 2009 から Cape Canaveral Space Force Station

Loading…

次のパス (今後24時間)

TLE

最新Source: Space-Track

元期: Sep 14, 2026, 12:23 UTC

1 33491U 09001B   26257.51665071 -.00000168  00000-0  00000-0 0  9999
2 33491   9.8308  34.8166 0262135  67.2984 295.4986  0.96058946 25011

AllMySatでDELTA 4H R/Bをリアルタイム追跡

Download on the App Store